Bennington, VT

8:29 PM EDT on May 20, 2018 (GMT -0400)
Morse State

Weather History for KDDH - January, 2013

Change the Weather History Date:

Tuesday, January 8, 2013

  Actual Average Record
Temperature  
Mean Temperature 25 °F 21 °F  
Max Temperature 41 °F 31 °F 41 °F (2016)
Min Temperature 9 °F 12 °F -12 °F (2015)
Degree Days  
Heating Degree Days 40 44  
Month to date heating degree days 360 348  
Since 1 July heating degree days 2805 3120  
Cooling Degree Days 0 0  
Month to date cooling degree days 0 0  
Year to date cooling degree days 0 0  
Moisture  
Dew Point 16 °F    
Average Humidity 67    
Maximum Humidity 92    
Minimum Humidity 41    
Precipitation  
Precipitation 0.00 in 0.10 in 0.02 in (2018)
Month to date precipitation 0.01 0.88  
Year to date precipitation 0.01 0.88  
Sea Level Pressure  
Sea Level Pressure 30.32 in    
Wind  
Wind Speed 1 mph (SE)    
Max Wind Speed 6 mph    
Max Gust Speed 21 mph    
Visibility 8 miles    
Events      
T = Trace of Precipitation, MM = Missing Value Source: NWS Daily Summary

Daily Weather History Graph

Daily Weather History Graph

Search for Another Location

Airport or City:

Astronomy

Jan. 08, 2013 Rise Set
Actual Time 7:23 AM EST 4:36 PM EST
Civil Twilight 6:51 AM EST 5:08 PM EST
Nautical Twilight 6:16 AM EST 5:43 PM EST
Astronomical Twilight 5:42 AM EST 6:17 PM EST
Moon 3:52 AM EST (1/8) 1:36 PM EST (1/8)
Length of Visible Light 10h 16m
Length of Day
9h 13m
Waning Crescent, 14% of the Moon is Illuminated
Jan 8
Waning Crescent
Jan 11
New
Jan 18
First Quarter
Jan 26
Full
Feb 3
Last Quarter

Hourly Weather History & Observations

Time (EST) Temp. Windchill Dew Point Humidity Pressure Visibility Wind Dir Wind Speed Gust Speed Precip Events Conditions
12:54 AM 10.9 °F - 7.0 °F 84% 30.30 in 6.0 mi Calm Calm - N/A   Clear
1:54 AM 10.0 °F 3.6 °F 6.1 °F 84% 30.30 in 6.0 mi Variable 3.5 mph - N/A   Clear
2:54 AM 10.9 °F - 7.0 °F 84% 30.29 in 9.0 mi Calm Calm - N/A   Clear
3:54 AM 15.1 °F 9.4 °F 10.0 °F 80% 30.27 in 10.0 mi Variable 3.5 mph - N/A   Clear
4:54 AM 18.0 °F - 14.0 °F 84% 30.27 in 9.0 mi Calm Calm - N/A   Clear
5:54 AM 15.1 °F - 10.9 °F 84% 30.29 in 8.0 mi Calm Calm - N/A   Clear
6:54 AM 14.0 °F - 10.9 °F 88% 30.31 in 6.0 mi Calm Calm - N/A   Clear
7:54 AM 12.0 °F - 10.0 °F 92% 30.34 in 5.0 mi Calm Calm - N/A   Clear
8:54 AM 17.1 °F - 15.1 °F 92% 30.35 in 4.0 mi Calm Calm - N/A   Clear
9:54 AM 28.0 °F - 24.1 °F 85% 30.34 in 7.0 mi Calm Calm - N/A   Clear
10:54 AM 33.1 °F - 24.1 °F 70% 30.32 in 8.0 mi Calm Calm - N/A   Clear
11:54 AM 37.9 °F 35.5 °F 21.0 °F 51% 30.31 in 10.0 mi North 3.5 mph - N/A   Clear
12:54 PM 39.0 °F - 21.0 °F 49% 30.30 in 10.0 mi Calm Calm - N/A   Clear
1:54 PM 39.0 °F - 19.9 °F 46% 30.30 in 10.0 mi Calm Calm - N/A   Clear
2:54 PM 41.0 °F 39.0 °F 19.9 °F 43% 30.31 in 10.0 mi North 3.5 mph - N/A   Clear
3:54 PM 37.9 °F - 21.0 °F 51% 30.31 in 10.0 mi Calm Calm - N/A   Clear
4:54 PM 28.9 °F 25.2 °F 19.9 °F 69% 30.32 in 10.0 mi South 3.5 mph - N/A   Clear
5:54 PM 28.0 °F 24.2 °F 19.0 °F 69% 30.35 in 9.0 mi South 3.5 mph - N/A   Clear
6:54 PM 21.9 °F 17.2 °F 17.1 °F 82% 30.37 in 8.0 mi SE 3.5 mph - N/A   Clear
7:54 PM 21.0 °F - 16.0 °F 81% 30.38 in 6.0 mi Calm Calm - N/A   Haze
8:54 PM 23.0 °F - 18.0 °F 81% 30.38 in 6.0 mi Calm Calm - N/A   Haze
9:54 PM 21.9 °F - 18.0 °F 85% 30.37 in 5.0 mi Calm Calm - N/A   Clear
10:54 PM 21.9 °F - 18.0 °F 85% 30.37 in 4.0 mi Calm Calm - N/A   Clear